Hourly Data Report for May 19, 2012

All times are specified in Local Standard Time (LST). Add 1 hour to adjust for Daylight Saving Time where and when it is observed.

OTTAWA INTL A
ONTARIO

45°19'00.000" N
75°40'00.000" W
114.90 m
6106001
71628
YOW

Download Data

Hourly Data (May 2012)
Hourly Data Report for May 19, 2012
Temp Definition
°C
Dew Point Temp Definition
°C
Rel Hum Definition
%
Wind Dir Definition
10's deg

Wind Spd Definition
km/h
Visibility Definition
km
Stn Press Definition
kPa
Hmdx Definition


Wind Chill Definition


Weather Definition


TIME
00:00 Legend Double Dagger 10.7 4.4 65 20 4 10.0 100.74     LegendNANA
01:00 Legend Double Dagger 11.0 6.4 73 18 7 10.0 100.73     Mostly Cloudy
02:00 Legend Double Dagger 11.2 6.8 74 19 5 10.0 100.71     LegendNANA
03:00 Legend Double Dagger 12.2 6.9 70   0 10.0 100.74     LegendNANA
04:00 Legend Double Dagger 11.4 7.2 75 18 9 10.0 100.73     Mostly Cloudy
05:00 Legend Double Dagger 11.9 8.2 78   0 10.0 100.77     LegendNANA
06:00 Legend Double Dagger 12.4 8.7 78 19 6 10.0 100.79     LegendNANA
07:00 Legend Double Dagger 17.0 8.3 56 21 8 10.0 100.77     Mainly Clear
08:00 Legend Double Dagger 18.9 6.5 44 19 8 10.0 100.80     LegendNANA
09:00 Legend Double Dagger 20.8 5.7 37 22 8 10.0 100.80     LegendNANA
10:00 Legend Double Dagger 22.3 7.1 37 29 8 10.0 100.82     Mainly Clear
11:00 Legend Double Dagger 23.0 4.7 30 22 6 10.0 100.80     LegendNANA
12:00 Legend Double Dagger 25.3 5.7 28 20 9 10.0 100.74 25   LegendNANA
13:00 Legend Double Dagger 26.5 7.8 30 25 13 10.0 100.72 27   Mainly Clear
14:00 Legend Double Dagger 26.9 9.1 32 20 5 10.0 100.65 28   LegendNANA
15:00 Legend Double Dagger 27.6 7.7 28 26 10 10.0 100.59 28   LegendNANA
16:00 Legend Double Dagger 27.7 7.3 27 21 5 10.0 100.55 28   Mostly Cloudy
17:00 Legend Double Dagger 27.8 7.9 28 27 8 10.0 100.52 28   LegendNANA
18:00 Legend Double Dagger 26.2 11.0 38 23 7 10.0 100.53 28   LegendNANA
19:00 Legend Double Dagger 24.2 10.0 40 21 8 10.0 100.57 25   Mostly Cloudy
20:00 Legend Double Dagger 23.0 9.6 42 20 7 10.0 100.63     LegendNANA
21:00 Legend Double Dagger 20.9 9.3 47 20 8 10.0 100.65     LegendNANA
22:00 Legend Double Dagger 19.6 9.6 52 20 8 10.0 100.69     Clear
23:00 Legend Double Dagger 17.5 9.2 58 19 9 10.0 100.70     LegendNANA

Notes on Data Quality.

Legend

  • E = Estimated
  • M = Missing
  • NA = Not Available
  • ‡ = Partner data that is not subject to review by the National Climate Archives
Date modified: